This demonstration page uses our WeatherBlox Daily Observations layout. Learn more.

Hourly Observations for May 22, 2016

Temp ( °F °C ) Dew Point ( °F °C ) Humidity (%) Winds ( mph kmh ) Pressure ( in mb ) Visibility ( mi km ) Precip ( " mm )
12:15 am 00:15 Cloudy 62 16.5 55 12.5 77 77 SE 23 37 29.94 1014 10 16.0934 0 0
12:35 am 00:35 Cloudy 62 16.6 55 12.5 77 77 SSE 21 33 29.94 1014 10 16.0934 0 0
12:55 am 00:55 Cloudy 62 16.6 55 12.6 77 77 SE 21 33 29.91 1013 10 16.0934 0 0
1:15 am 01:15 Cloudy 62 16.7 55 12.7 77 77 SE 23 37 29.91 1013 10 16.0934 0 0
1:35 am 01:35 Cloudy 62 16.6 55 12.7 78 78 SE 26 43 29.91 1013 10 16.0934 0 0
1:55 am 01:55 Cloudy 62 16.7 55 12.8 78 78 SSE 24 39 29.91 1013 10 16.0934 0 0
2:15 am 02:15 Cloudy 62 16.7 55 12.8 78 78 SSE 23 37 29.91 1013 10 16.0934 0 0
2:35 am 02:35 Cloudy 62 16.6 55 12.9 79 79 SSE 21 33 29.91 1013 10 16.0934 0 0
2:55 am 02:55 Cloudy 62 16.5 55 13 80 80 SSE 20 31 29.91 1013 10 16.0934 0 0
3:15 am 03:15 Cloudy 62 16.5 55 13 80 80 SSE 20 31 29.91 1013 10 16.0934 0 0
3:35 am 03:35 Cloudy 61 16.3 55 13 81 81 SSE 22 35 29.91 1013 10 16.0934 0 0
3:55 am 03:55 Cloudy 61 16.1 55 13 82 82 SSE 21 33 29.88 1012 10 16.0934 0 0
4:15 am 04:15 Cloudy 61 16.1 55 13 82 82 SSE 22 35 29.91 1013 10 16.0934 0 0
4:35 am 04:35 Cloudy 61 16.1 55 13 82 82 SSE 21 33 29.91 1013 10 16.0934 0 0
4:55 am 04:55 Cloudy 61 16.1 55 13 82 82 SSE 23 37 29.88 1012 10 16.0934 0 0
5:15 am 05:15 Cloudy 61 16 55 13 83 83 SSE 21 33 29.88 1012 10 16.0934 0 0
5:35 am 05:35 Cloudy with Nearby Thunderstorms 61 16 56 13.1 83 83 SSE 21 33 29.88 1012 10 16.0934 0 0
5:55 am 05:55 Cloudy 61 16 55 13 83 83 SSE 21 33 29.88 1012 10 16.0934 0 0
6:15 am 06:15 Cloudy with Nearby Thunderstorms 61 16 56 13.2 84 84 SSE 22 35 29.85 1011 10 16.0934 0 0
6:35 am 06:35 Cloudy with Nearby Thunderstorms 60 15.5 56 13.2 86 86 SSE 24 39 29.85 1011 10 16.0934 0 0
6:55 am 06:55 Cloudy with Nearby Thunderstorms 60 15.6 56 13.5 87 87 SSE 20 31 29.85 1011 10 16.0934 0 0
7:15 am 07:15 Cloudy with Nearby Thunderstorms 60 15.8 57 13.8 88 88 SSE 22 35 29.85 1011 10 16.0934 0 0
7:35 am 07:35 Cloudy with Nearby Thunderstorms 61 16.3 58 14.2 87 87 SSE 23 37 29.85 1011 10 16.0934 0 0
7:55 am 07:55 Cloudy 60 15.8 57 13.8 88 88 SSE 22 35 29.85 1011 10 16.0934 0 0
8:15 am 08:15 Cloudy 61 16 57 14.1 89 89 SSE 18 30 29.88 1012 10 16.0934 0 0
8:35 am 08:35 Cloudy 61 16 58 14.2 89 89 SSE 20 31 29.85 1011 10 16.0934 0 0
8:55 am 08:55 Mostly Cloudy 63 17.2 59 15 87 87 SSE 17 28 29.88 1012 10 16.0934 0 0
9:15 am 09:15 Partly Cloudy 66 18.9 62 16.4 86 86 S 20 31 29.83 1010 10 16.0934 0 0
9:35 am 09:35 Sunny 70 21 62 16.7 77 77 S 25 41 29.85 1011 10 16.0934 0 0
9:55 am 09:55 Mostly Cloudy 70 20.9 62 16.5 76 76 S 23 37 29.85 1011 10 16.0934 0 0
10:15 am 10:15 Cloudy 68 19.8 61 16.2 80 80 S 23 37 29.85 1011 10 16.0934 0 0
10:35 am 10:35 Cloudy 69 20.8 62 16.4 76 76 S 25 41 29.85 1011 10 16.0934 0 0
10:55 am 10:55 Partly Cloudy 69 20.5 61 16.2 76 76 S 25 41 29.83 1010 10 16.0934 0 0
11:15 am 11:15 Partly Cloudy 69 20.5 62 16.5 78 78 SSE 21 33 29.83 1010 10 16.0934 0 0
11:35 am 11:35 Mostly Cloudy 70 21 62 16.5 76 76 SSE 24 39 29.83 1010 10 16.0934 0 0
11:55 am 11:55 Cloudy 68 19.9 62 16.5 81 81 SSE 23 37 29.83 1010 10 16.0934 0 0
12:15 pm 12:15 Cloudy 67 19.2 62 16.5 84 84 SSE 20 31 29.83 1010 10 16.0934 0 0
12:35 pm 12:35 Cloudy 67 19.4 62 16.5 83 83 SSE 20 31 29.83 1010 10 16.0934 0 0
12:55 pm 12:55 Cloudy 67 19.7 62 16.5 82 82 SSE 21 33 29.8 1009 10 16.0934 0 0
1:15 pm 13:15 Cloudy 68 20.1 63 17 82 82 SSE 21 33 29.8 1009 10 16.0934 0 0
1:35 pm 13:35 Cloudy 70 21 63 17.3 80 80 SSE 26 43 29.77 1008 10 16.0934 0 0
1:55 pm 13:55 Cloudy 72 22 64 17.7 77 77 SSE 26 43 29.74 1007 10 16.0934 0 0
2:15 pm 14:15 Cloudy 73 22.9 65 18.1 74 74 SSE 25 41 29.71 1006 10 16.0934 0 0
2:35 pm 14:35 Cloudy 74 23.6 65 18.2 72 72 S 28 44 29.71 1006 10 16.0934 0 0
2:55 pm 14:55 Cloudy 75 24.1 65 18.1 69 69 S 29 46 29.71 1006 10 16.0934 0 0
3:15 pm 15:15 Cloudy 76 24.6 65 18.1 67 67 S 26 43 29.65 1004 10 16.0934 0 0
3:35 pm 15:35 Mostly Cloudy 77 25 64 18 65 65 SSE 25 41 29.65 1004 10 16.0934 0 0
3:55 pm 15:55 Mostly Cloudy 78 25.6 64 18 63 63 SSE 30 48 29.65 1004 10 16.0934 0 0
4:15 pm 16:15 Cloudy 78 25.7 64 17.9 62 62 S 29 46 29.65 1004 10 16.0934 0 0
4:35 pm 16:35 Cloudy 77 24.9 65 18.1 66 66 SSE 28 44 29.65 1004 10 16.0934 0 0
4:55 pm 16:55 Mostly Cloudy 76 24.5 65 18.1 68 68 SSE 31 50 29.68 1005 10 16.0934 0 0
5:15 pm 17:15 Mostly Cloudy 76 24.6 65 18.1 67 67 SSE 25 41 29.65 1004 10 16.0934 0 0
5:35 pm 17:35 Partly Cloudy 77 24.8 65 18.3 67 67 SSE 29 46 29.62 1003 10 16.0934 0 0
5:55 pm 17:55 Partly Cloudy 78 25.4 65 18.5 66 66 SSE 29 46 29.62 1003 10 16.0934 0 0
6:15 pm 18:15 Partly Cloudy 77 25 65 18.3 66 66 S 31 50 29.62 1003 10 16.0934 0 0
6:35 pm 18:35 Partly Cloudy 77 24.9 65 18.2 66 66 SSE 28 44 29.59 1002 10 16.0934 0 0
6:55 pm 18:55 Partly Cloudy 75 24 65 18.5 71 71 SSE 30 48 29.59 1002 10 16.0934 0 0
7:15 pm 19:15 Partly Cloudy 75 23.8 65 18.2 71 71 SSE 25 41 29.62 1003 10 16.0934 0 0
7:35 pm 19:35 Sunny 75 23.7 65 18.4 72 72 SSE 24 39 29.62 1003 10 16.0934 0 0
7:55 pm 19:55 Sunny 74 23.6 65 18.5 73 73 SSE 25 41 29.62 1003 10 16.0934 0 0
8:15 pm 20:15 Partly Cloudy 74 23.1 65 18.5 75 75 SSE 24 39 29.62 1003 10 16.0934 0 0
8:35 pm 20:35 Partly Cloudy 73 22.7 65 18.6 78 78 SSE 25 41 29.62 1003 10 16.0934 0 0
8:55 pm 20:55 Mostly Cloudy 73 22.5 65 18.6 79 79 SSE 18 30 29.62 1003 10 16.0934 0 0
9:15 pm 21:15 Partly Cloudy 72 22.2 65 18.6 80 80 SSE 23 37 29.62 1003 10 16.0934 0 0
9:35 pm 21:35 Partly Cloudy 72 22 65 18.6 81 81 SSE 23 37 29.62 1003 10 16.0934 0 0
9:55 pm 21:55 Partly Cloudy 72 22 65 18.5 81 81 SSE 21 33 29.62 1003 10 16.0934 0 0
10:15 pm 22:15 Partly Cloudy 71 21.5 65 18.5 83 83 SSE 23 37 29.62 1003 10 16.0934 0 0
10:35 pm 22:35 Mostly Cloudy 71 21.6 65 18.5 83 83 SSE 23 37 29.62 1003 10 16.0934 0 0
10:55 pm 22:55 Mostly Cloudy 71 21.6 65 18.5 83 83 SSE 23 37 29.62 1003 10 16.0934 0 0
11:15 pm 23:15 Mostly Cloudy 71 21.5 65 18.5 83 83 SSE 22 35 29.62 1003 10 16.0934 0 0
11:35 pm 23:35 Partly Cloudy 70 21 65 18.2 84 84 SSE 22 35 29.62 1003 10 16.0934 0 0
11:55 pm 23:55 Clear 70 20.9 65 18.1 84 84 SSE 21 33 29.62 1003 10 16.0934 0 0

Powered by AerisWeather